Find Nancy Roman

NORAD ID: 60493 Int'l Des: 2024-149 Owner: URUGUS Country: UY Constellation: satellogic operational
LEOCIRCULARRETROGRADESSO

实时位置

正在加载3D地球...

关于 Nancy Roman

正在加载描述...

即将过境

Passes for default location (London). Set your location on the main map for personalized predictions.

高度历史

Loading altitude history...

两行轨道根数

1 60493U 24149AB 26106.40183469 .00005592 00000-0 19256-3 0 9999
2 60493 97.3791 188.1364 0004575 108.7799 251.3939 15.30433515 92680
Epoch: Apr 16, 2026 • Age: 32 hours

当前状态

高度 479.7 km
速度 7.63 km/s
星下点 44.83°N, 77.88°E
发射日期 Aug 16, 2024
运行时间 1.6 years
类型 earth observation

技术详情

分类 Payload
质量 41.50 kg
干质量 38.50 kg
总质量 41.50 kg
长度 0.81 m
直径 0.51 m
跨度 0.81 m
形状 Box
制造商 URUGUS
平台类型 Newsat V
阶段状态 In Orbit
所有者/国家 URUGUS/UY

Most Searched